When you browse on this site, cookies collect data to enhance your experience and personalize the content and advertising you see.
Visit our Privacy Policy to learn more. By continuing to use the site, you agree to this use of cookies and data.
  • In Czech Republic
  • List of Countries
  • For 7 days
  • Water Temperature
  • Satellite Maps
  • Weather Map
  • Weather Widgets
  • user-avatar
    Login

    Hourly Weather Erd

    Today, 17 January, Thursday

    Time Temperature Precipitation Wind Pressure Humidity
    00:00 +2°C° 0 mm 2 mps 749 mmHg 87%
    01:00 +2°C° 0 mm 2 mps 748 mmHg 91%
    02:00 +2°C° 0 mm 2 mps 748 mmHg 91%
    03:00 +2°C° 0 mm 2 mps 748 mmHg 91%
    04:00 +2°C° 0 mm 2 mps 748 mmHg 92%
    05:00 +2°C° 0 mm 2 mps 748 mmHg 91%
    06:00 +2°C° 0 mm 2 mps 748 mmHg 91%
    07:00 +2°C° 0 mm 1 mps 748 mmHg 93%
    08:00 +2°C° 0 mm 2 mps 748 mmHg 89%
    09:00 +3°C° 0 mm 2 mps 748 mmHg 86%
    10:00 +3°C° 0 mm 3 mps 748 mmHg 83%
    11:00 +5°C° 0 mm 3 mps 748 mmHg 79%
    12:00 +7°C° 0 mm 3 mps 748 mmHg 75%
    13:00 +8°C° 0 mm 3 mps 748 mmHg 72%
    14:00 +8°C° 0 mm 3 mps 748 mmHg 74%
    15:00 +8°C° 0 mm 3 mps 748 mmHg 77%
    16:00 +7°C° 0 mm 3 mps 748 mmHg 79%
    17:00 +6°C° 0 mm 4 mps 747 mmHg 79%
    18:00 +6°C° 0 mm 4 mps 747 mmHg 79%
    19:00 +6°C° 0 mm 5 mps 747 mmHg 79%
    20:00 +5°C° 0 mm 5 mps 747 mmHg 78%
    21:00 +5°C° 0 mm 5 mps 747 mmHg 77%
    22:00 +5°C° 0 mm 5 mps 747 mmHg 76%
    23:00 +5°C° 0.7 mm 5 mps 747 mmHg 80%

    Tomorrow, 18 January, Friday

    Time Temperature Precipitation Wind Pressure Humidity
    00:00 +5°C° 0.7 mm 5 mps 747 mmHg 84%
    01:00 +5°C° 0.7 mm 5 mps 747 mmHg 88%
    02:00 +4°C° 1 mm 4 mps 747 mmHg 88%
    03:00 +4°C° 1 mm 3 mps 747 mmHg 87%
    04:00 +3°C° 1 mm 3 mps 747 mmHg 86%
    05:00 +3°C° 0.3 mm 3 mps 748 mmHg 83%
    06:00 +3°C° 0.3 mm 3 mps 748 mmHg 81%
    07:00 +3°C° 0.3 mm 3 mps 748 mmHg 78%
    08:00 +3°C° 0.1 mm 4 mps 749 mmHg 76%
    09:00 +3°C° 0.1 mm 4 mps 749 mmHg 73%
    10:00 +3°C° 0.1 mm 4 mps 750 mmHg 71%
    11:00 +2°C° 0 mm 5 mps 750 mmHg 68%
    12:00 +2°C° 0 mm 5 mps 750 mmHg 65%
    13:00 +2°C° 0 mm 6 mps 751 mmHg 61%
    14:00 +2°C° 0 mm 6 mps 751 mmHg 62%
    15:00 +2°C° 0 mm 5 mps 751 mmHg 64%
    16:00 +1°C° 0 mm 5 mps 752 mmHg 65%
    17:00 +1°C° 0 mm 5 mps 752 mmHg 66%
    18:00 +1°C° 0 mm 4 mps 753 mmHg 68%
    19:00 0°C° 0 mm 4 mps 753 mmHg 69%
    20:00 0°C° 0 mm 4 mps 754 mmHg 67%
    21:00 -1°C° 0 mm 4 mps 754 mmHg 66%
    22:00 -2°C° 0 mm 4 mps 755 mmHg 64%
    23:00 -1°C° 0 mm 3 mps 755 mmHg 67%

    Day after tomorrow, 19 January, Saturday

    Time Temperature Precipitation Wind Pressure Humidity
    00:00 -2°C° 0 mm 3 mps 755 mmHg 70%
    01:00 -2°C° 0 mm 2 mps 755 mmHg 72%
    02:00 -2°C° 0 mm 2 mps 755 mmHg 74%
    03:00 0°C° 0 mm 1 mps 755 mmHg 75%
    04:00 0°C° 0 mm 1 mps 755 mmHg 77%
    05:00 0°C° 0 mm 1 mps 756 mmHg 77%
    06:00 0°C° 0 mm 1 mps 756 mmHg 76%
    07:00 0°C° 0 mm 1 mps 756 mmHg 76%
    08:00 -1°C° 0 mm 2 mps 756 mmHg 71%
    09:00 -1°C° 0 mm 2 mps 756 mmHg 66%
    10:00 0°C° 0 mm 3 mps 756 mmHg 60%
    11:00 0°C° 0 mm 3 mps 756 mmHg 57%
    12:00 +1°C° 0 mm 3 mps 755 mmHg 53%
    13:00 +1°C° 0 mm 3 mps 755 mmHg 50%
    14:00 +1°C° 0 mm 3 mps 755 mmHg 51%
    15:00 +1°C° 0 mm 3 mps 754 mmHg 53%
    16:00 +1°C° 0 mm 2 mps 754 mmHg 55%
    17:00 +1°C° 0 mm 2 mps 754 mmHg 57%
    18:00 -1°C° 0 mm 2 mps 754 mmHg 59%
    19:00 -1°C° 0 mm 2 mps 754 mmHg 61%
    20:00 -1°C° 0 mm 2 mps 754 mmHg 62%
    21:00 -1°C° 0 mm 2 mps 754 mmHg 63%
    22:00 -1°C° 0 mm 2 mps 754 mmHg 64%
    23:00 -2°C° 0.1 mm 2 mps 754 mmHg 68%

    20 January, Sunday

    Time Temperature Precipitation Wind Pressure Humidity
    00:00 -2°C° 0.1 mm 2 mps 753 mmHg 72%
    01:00 -2°C° 0.1 mm 2 mps 753 mmHg 76%
    02:00 -2°C° 0.2 mm 2 mps 753 mmHg 80%
    03:00 -2°C° 0.2 mm 2 mps 752 mmHg 84%
    04:00 -2°C° 0.2 mm 2 mps 752 mmHg 88%
    05:00 -2°C° 0.3 mm 2 mps 752 mmHg 89%
    06:00 -2°C° 0.3 mm 2 mps 752 mmHg 90%
    07:00 0°C° 0.3 mm 1 mps 752 mmHg 91%
    08:00 0°C° 0.1 mm 1 mps 752 mmHg 90%
    09:00 +1°C° 0.1 mm 1 mps 752 mmHg 89%
    10:00 +1°C° 0.1 mm 1 mps 752 mmHg 88%
    11:00 +1°C° 0.1 mm 1 mps 752 mmHg 86%
    12:00 +2°C° 0.1 mm 1 mps 752 mmHg 84%
    13:00 +2°C° 0.1 mm 1 mps 752 mmHg 81%
    14:00 +2°C° 0 mm 1 mps 752 mmHg 81%
    15:00 +1°C° 0 mm 2 mps 752 mmHg 82%
    16:00 +1°C° 0 mm 2 mps 752 mmHg 82%
    17:00 -1°C° 0 mm 2 mps 752 mmHg 82%
    18:00 -1°C° 0 mm 2 mps 752 mmHg 82%
    19:00 -1°C° 0 mm 2 mps 753 mmHg 82%
    20:00 -2°C° 0 mm 2 mps 753 mmHg 83%
    21:00 -2°C° 0 mm 2 mps 753 mmHg 84%
    22:00 -3°C° 0 mm 2 mps 754 mmHg 85%
    23:00 -3°C° 0 mm 2 mps 754 mmHg 83%

    21 January, Monday

    Time Temperature Precipitation Wind Pressure Humidity
    00:00 -3°C° 0 mm 2 mps 754 mmHg 82%
    01:00 -3°C° 0 mm 2 mps 754 mmHg 80%
    02:00 -3°C° 0 mm 2 mps 754 mmHg 78%
    03:00 -3°C° 0 mm 2 mps 754 mmHg 76%
    04:00 -3°C° 0 mm 2 mps 754 mmHg 75%
    05:00 -3°C° 0 mm 2 mps 755 mmHg 75%
    06:00 -3°C° 0 mm 2 mps 755 mmHg 75%
    07:00 -2°C° 0 mm 1 mps 755 mmHg 76%
    08:00 -1°C° 0 mm 1 mps 756 mmHg 74%
    09:00 0°C° 0 mm 1 mps 756 mmHg 73%
    10:00 +1°C° 0 mm 1 mps 756 mmHg 71%
    11:00 +1°C° 0 mm 1 mps 756 mmHg 68%
    12:00 +2°C° 0 mm 1 mps 756 mmHg 65%
    13:00 +2°C° 0 mm 1 mps 756 mmHg 62%
    14:00 +2°C° 0 mm 1 mps 756 mmHg 64%
    15:00 0°C° 0 mm 0 mps 756 mmHg 66%
    16:00 0°C° 0 mm 0 mps 756 mmHg 68%
    17:00 0°C° 0 mm 0 mps 756 mmHg 70%
    18:00 -1°C° 0 mm 0 mps 756 mmHg 71%
    19:00 -1°C° 0 mm 0 mps 756 mmHg 73%
    20:00 -2°C° 0 mm 0 mps 756 mmHg 73%
    21:00 -2°C° 0 mm 0 mps 756 mmHg 73%
    22:00 -2°C° 0 mm 0 mps 756 mmHg 73%
    23:00 -2°C° 0 mm 0 mps 755 mmHg 74%

    22 January, Tuesday

    Time Temperature Precipitation Wind Pressure Humidity
    00:00 -1°C° 0 mm 1 mps 755 mmHg 75%
    01:00 -1°C° 0 mm 1 mps 754 mmHg 75%
    02:00 -1°C° 0 mm 1 mps 754 mmHg 77%
    03:00 -1°C° 0 mm 1 mps 754 mmHg 78%
    04:00 -2°C° 0 mm 1 mps 753 mmHg 80%
    05:00 -2°C° 0 mm 1 mps 753 mmHg 81%
    06:00 -2°C° 0 mm 1 mps 752 mmHg 82%
    07:00 -2°C° 0 mm 1 mps 752 mmHg 84%
    08:00 -1°C° 0 mm 1 mps 752 mmHg 82%
    09:00 -1°C° 0 mm 1 mps 751 mmHg 81%
    10:00 -2°C° 0 mm 2 mps 751 mmHg 80%
    11:00 -2°C° 0 mm 2 mps 750 mmHg 78%
    12:00 -2°C° 0 mm 2 mps 750 mmHg 77%
    13:00 +1°C° 0 mm 1 mps 749 mmHg 75%
    14:00 0°C° 0 mm 1 mps 748 mmHg 76%
    15:00 0°C° 0 mm 1 mps 748 mmHg 77%
    16:00 0°C° 0 mm 1 mps 747 mmHg 78%
    17:00 0°C° 0 mm 1 mps 747 mmHg 79%
    18:00 -1°C° 0 mm 0 mps 747 mmHg 79%
    19:00 -2°C° 0 mm 0 mps 747 mmHg 80%
    20:00 -2°C° 0 mm 0 mps 746 mmHg 80%
    21:00 -2°C° 0 mm 0 mps 746 mmHg 80%
    22:00 -2°C° 0 mm 0 mps 746 mmHg 81%
    23:00 -2°C° 0 mm 0 mps 746 mmHg 82%
    Show more